Regional Weather Roundup
Issued by NWS Raleigh/Durham, NC

Home | Current Version | Previous Version | Text Only | Print | Product List | Glossary On
Versions: 1 2 3 4 5 6 7 8 9 10 11 12 13 14 15 16 17 18 19 20 21 22 23 24 25 26 27 28
000
ASUS42 KRAH 240810
RWRRAH
NORTH CAROLINA WEATHER ROUNDUP
NATIONAL WEATHER SERVICE RALEIGH NC
300 AM EST WED JAN 24 2018

NOTE: "FAIR" INDICATES FEW OR NO CLOUDS BELOW 12,000 FEET WITH NO
SIGNIFICANT WEATHER AND/OR OBSTRUCTIONS TO VISIBILITY.

NCZ001-053-055-056-065-067-240900-
WESTERN NORTH CAROLINA

CITY           SKY/WX    TMP DP  RH WIND       PRES   REMARKS
ASHEVILLE      FAIR      36  25  64 N17G26    30.07R WCI  26
JEFFERSON      CLOUDY    32  23  70 W10G16    29.98F WCI  23
MORGANTON      FAIR      40  29  64 CALM      30.09R
HICKORY        FAIR      40  27  59 N3        30.05R
RUTHERFORDTON  FAIR      39  27  62 W3        30.07S
MOUNT AIRY     FAIR      44  27  50 NW7G21    30.05R
BOONE          MOCLDY    32  24  71 W33G46    29.98R WCI  17
$$

NCZ021-022-025-041-071-084-088-240900-
CENTRAL NORTH CAROLINA

CITY           SKY/WX    TMP DP  RH WIND       PRES   REMARKS
CHARLOTTE      FAIR      39  28  64 W6        30.06R WCI  35
GREENSBORO     FAIR      40  29  64 NW9       30.03R WCI  34
WINSTON-SALEM  MOCLDY    43  27  53 NW8       30.05R
RALEIGH-DURHAM FAIR      40  29  64 NW3       30.04R
FORT BRAGG     FAIR      40  32  72 CALM      30.03R
FAYETTEVILLE   FAIR      41  33  73 W6        30.04R
BURLINGTON     FAIR      45  28  51 W10       30.03R
LAURINBURG     FAIR      38  32  79 W3        30.06R
$$

NCZ011-015-027-028-043-044-047-080-103-240900-
NORTHEASTERN NORTH CAROLINA

CITY           SKY/WX    TMP DP  RH WIND       PRES   REMARKS
ROCKY MT-WILSO FAIR      42  30  62 CALM      30.03R
GREENVILLE     FAIR      43  30  61 CALM      30.04R
WASHINGTON     FAIR      48  28  46 NW6       30.02R
ELIZABETH CITY FAIR      44  38  79 W8        29.99R
MANTEO         FAIR      42  40  91 NW5       29.98R
CAPE HATTERAS  NOT AVBL
$$

NCZ078-087-090-091-093-098-101-240900-
SOUTHEASTERN NORTH CAROLINA

CITY           SKY/WX    TMP DP  RH WIND       PRES   REMARKS
LUMBERTON      FAIR      37  32  82 W5        30.05R WCI  33
GOLDSBORO      FAIR      42  31  66 CALM      30.02R
KINSTON        FAIR      47  29  50 CALM      30.04R
KENANSVILLE    FAIR      39  32  75 W3        30.04R
NEW BERN       FAIR      47  31  53 NW5       30.03R
CHERRY POINT   CLEAR     48  32  53 NW8       30.02R
BEAUFORT       FAIR      46  40  79 NW7       30.01R
JACKSONVILLE   FAIR      46  34  62 NW7       30.02R
WILMINGTON     FAIR      46  34  62 W5        30.04R
$$





USA.gov is the U.S. government's official web portal to all federal, state and local government web resources and services.